This is the latest recevied weather packets stored in our database for station/object VK5KX. If no packets are shown the sender has not sent any weather packets the latest 10 day(s).
| Time | Temp. | Humidity | Pressure | Rain* | Wind** | Luminosity | Snow |
|---|---|---|---|---|---|---|---|
| 1777909558 | 12.78° C | 92% | 1020.9 hPa | 0 mm | - | - | - |
| 1777908683 | 12.22° C | 92% | 1021 hPa | 0 mm | - | - | - |
| 1777907755 | 12.22° C | 92% | 1021 hPa | 0 mm | - | - | - |
| 1777906862 | 12.22° C | 91% | 1020.7 hPa | 0 mm | - | - | - |
| 1777905951 | 12.22° C | 91% | 1020.6 hPa | 0 mm | - | - | - |
| 1777905049 | 12.78° C | 91% | 1020.7 hPa | 0 mm | - | - | - |
| 1777904146 | 12.78° C | 90% | 1020.6 hPa | 0 mm | - | - | - |
| 1777903247 | 13.33° C | 90% | 1020.6 hPa | 0 mm | - | - | - |
| 1777902353 | 13.33° C | 90% | 1020.5 hPa | 0 mm | - | - | - |
| 1777901442 | 13.33° C | 89% | 1020.4 hPa | 0 mm | - | - | - |
| 1777900541 | 13.89° C | 89% | 1020.4 hPa | 0 mm | - | - | - |
| 1777899640 | 14.44° C | 89% | 1020.3 hPa | 0 mm | - | - | - |
| 1777898740 | 14.44° C | 89% | 1020.2 hPa | 0 mm | - | - | - |
| 1777897855 | 15° C | 88% | 1020.2 hPa | 0 mm | - | - | - |
| 1777896940 | 15° C | 88% | 1020.1 hPa | 0 mm | - | - | - |
| 1777896037 | 15° C | 87% | 1019.9 hPa | 0 mm | - | - | - |
| 1777895135 | 15° C | 87% | 1019.7 hPa | 0 mm | - | - | - |
| 1777894233 | 15° C | 86% | 1019.7 hPa | 0 mm | - | - | - |
| 1777893338 | 15.56° C | 85% | 1019.6 hPa | 0 mm | - | - | - |
| 1777892429 | 15.56° C | 84% | 1019.3 hPa | 0 mm | - | - | - |
| 1777891527 | 15.56° C | 83% | 1019 hPa | 0 mm | - | - | - |
| 1777890626 | 15.56° C | 81% | 1018.9 hPa | 0 mm | - | - | - |
| 1777889725 | 15.56° C | 79% | 1018.7 hPa | 0 mm | - | - | - |
| 1777888823 | 16.11° C | 78% | 1018.6 hPa | 0 mm | - | - | - |
| 1777887936 | 16.11° C | 76% | 1018.3 hPa | 0 mm | - | - | - |
* Rain latest hour (hover to see other rain measurements)
** Current wind speed in m/s (hover to see current wind gust speed)